Weather History for Rolla, MO

Change the Weather History Date:

Tuesday, March 12, 2013

  Actual Average Record
Temperature  
Mean Temperature 35 °F 44 °F  
Max Temperature 48 °F 55 °F 80 °F (1954)
Min Temperature 22 °F 33 °F 10 °F (1960)
Degree Days  
Heating Degree Days 30 21  
Month to date heating degree days 346 277  
Since 1 July heating degree days 3932 4067  
Cooling Degree Days 0 0  
Month to date cooling degree days 0 0  
Year to date cooling degree days 0 0  
Moisture  
Dew Point 23 °F    
Average Humidity 69    
Maximum Humidity 92    
Minimum Humidity 45    
Precipitation  
Precipitation 0.00 in 0.10 in 1.01 in (1966)
Month to date precipitation 1.53 1.08  
Year to date precipitation 6.24 5.18  
Sea Level Pressure  
Sea Level Pressure 30.13 in    
Wind  
Wind Speed 11 mph (West)    
Max Wind Speed 24 mph    
Max Gust Speed 32 mph    
Visibility 10 miles    
Events Rain    
T = Trace of Precipitation, MM = Missing Value Source: NWS Daily Summary

Daily Weather History Graph

Daily Weather History Graph

Search for Another Location

Airport:

Trip Planner

Search our weather history database for the weather conditions in past years. The results will help you decide how hot, cold, wet, or windy it might be!

Date:

Astronomy

Mar. 12, 2013 Rise Set
Actual Time 7:22 AM CDT 7:11 PM CDT
Civil Twilight 6:56 AM CDT 7:37 PM CDT
Nautical Twilight 6:25 AM CDT 8:08 PM CDT
Astronomical Twilight 5:54 AM CDT 8:39 PM CDT
Moon 7:30 AM CDT (3/12) 8:25 PM CDT (3/12)
Length of Visible Light 12h 41m
Length of Day
11h 49m
New Moon, 1% of the Moon is Illuminated
Mar 12
New Moon
Mar 19
First Quarter
Mar 27
Full
Apr 2
Last Quarter
Apr 10
New

Hourly Weather History & Observations

Time (CDT) Temp. Windchill Dew Point Humidity Pressure Visibility Wind Dir Wind Speed Gust Speed Precip Events Conditions
12:53 AM 24.1 °F 18.2 °F 21.0 °F 88% 30.01 in 10.0 mi West 4.6 mph - N/A   Clear
1:53 AM 24.1 °F 17.0 °F 21.0 °F 88% 30.03 in 10.0 mi SW 5.8 mph - N/A   Clear
2:53 AM 24.1 °F 17.0 °F 21.0 °F 88% 30.03 in 10.0 mi WSW 5.8 mph - N/A   Clear
3:53 AM 21.9 °F 15.7 °F 19.9 °F 92% 30.04 in 10.0 mi SW 4.6 mph - N/A   Clear
4:53 AM 25.0 °F 17.1 °F 21.0 °F 85% 30.05 in 10.0 mi WSW 6.9 mph - N/A   Clear
5:53 AM 25.0 °F 17.1 °F 21.9 °F 88% 30.07 in 10.0 mi WSW 6.9 mph - N/A   Clear
6:53 AM 25.0 °F 18.1 °F 21.9 °F 88% 30.09 in 10.0 mi WSW 5.8 mph - N/A   Clear
7:53 AM 27.0 °F 18.7 °F 23.0 °F 85% 30.11 in 10.0 mi West 8.1 mph - N/A   Clear
8:53 AM 30.0 °F 21.7 °F 23.0 °F 75% 30.12 in 10.0 mi West 9.2 mph - N/A   Clear
9:53 AM 32.0 °F 24.2 °F 23.0 °F 69% 30.15 in 10.0 mi West 9.2 mph - N/A   Clear
10:53 AM 36.0 °F 29.0 °F 26.1 °F 67% 30.15 in 10.0 mi West 9.2 mph - N/A   Clear
11:53 AM 41.0 °F 34.7 °F 25.0 °F 53% 30.16 in 10.0 mi WNW 10.4 mph - N/A   Overcast
12:53 PM 45.0 °F 38.5 °F 25.0 °F 46% 30.15 in 10.0 mi WNW 13.8 mph 20.7 mph N/A   Mostly Cloudy
1:53 PM 45.0 °F 37.9 °F 25.0 °F 46% 30.13 in 10.0 mi West 16.1 mph 31.1 mph N/A   Mostly Cloudy
2:53 PM 46.9 °F - 26.1 °F 44% 30.12 in 10.0 mi West 10.4 mph 23.0 mph N/A   Overcast
3:53 PM 46.0 °F 38.3 °F 27.0 °F 47% 30.12 in 10.0 mi West 20.7 mph 27.6 mph N/A   Overcast
4:53 PM 44.1 °F 36.2 °F 28.0 °F 53% 30.13 in 10.0 mi WNW 18.4 mph 29.9 mph 0.00 in Rain Light Rain
5:53 PM 42.1 °F 34.5 °F 25.0 °F 51% 30.14 in 10.0 mi NW 15.0 mph 28.8 mph N/A   Overcast
6:53 PM 41.0 °F 33.5 °F 24.1 °F 51% 30.17 in 10.0 mi WNW 13.8 mph 25.3 mph N/A   Overcast
7:53 PM 37.9 °F 29.6 °F 21.9 °F 53% 30.19 in 10.0 mi WNW 13.8 mph 23.0 mph N/A   Clear
8:53 PM 36.0 °F 28.5 °F 21.9 °F 57% 30.21 in 10.0 mi NW 10.4 mph - N/A   Clear
9:53 PM 35.1 °F 25.2 °F 23.0 °F 61% 30.24 in 10.0 mi WNW 16.1 mph 21.9 mph N/A   Clear
10:53 PM 33.8 °F 23.2 °F 21.2 °F 60% 30.22 in 10.0 mi NW 17.3 mph - N/A   Clear
11:53 PM 32.0 °F 23.0 °F 21.0 °F 64% 30.26 in 10.0 mi WNW 11.5 mph - N/A   Clear